FW2332 Weather Reports


time (UTC)temp
F
wind
direction
speed
knots
gust
knots
rain 1hr
in
rain 24hr
in
rain mn
in
humidity
%
barometer
mb
20260506051055 58 195 1.7 0.0 0.00 0.00 0.00 85 1016.3
20260506050855 58 211 2.6 0.0 0.00 0.00 0.00 85 1016.3
20260506050707 58 210 3.5 0.0 0.00 0.00 0.00 86 1016.4
20260506050654 58 205 2.6 0.0 0.00 0.00 0.00 85 1016.3
20260506050253 58 190 1.7 0.0 0.00 0.00 0.00 85 1016.3
20260506045100 58 223 1.7 0.0 0.00 0.00 0.00 86 1016.1
20260506045048 58 209 1.7 0.0 0.00 0.00 0.00 86 1016.3
20260506044647 58 198 1.7 0.0 0.00 0.00 0.00 86 1016.3
20260506044446 58 210 1.7 0.0 0.00 0.00 0.00 86 1016.3
20260506044246 58 169 0.9 0.0 0.00 0.00 0.00 85 1016.1
20260506044046 59 217 1.7 0.0 0.00 0.00 0.00 85 1016.1
20260506043846 59 213 1.7 0.0 0.00 0.00 0.00 85 1016.1
20260506043644 59 188 2.6 0.0 0.00 0.00 0.00 85 1016.1
20260506043444 59 220 1.7 0.0 0.00 0.00 0.00 85 1016.1
20260506043244 59 206 0.9 0.0 0.00 0.00 0.00 85 1016.1
20260506043044 59 200 2.6 0.0 0.00 0.00 0.00 85 1016.1
20260506042843 59 186 0.9 0.0 0.00 0.00 0.00 85 1016.1
20260506042655 59 199 1.7 0.0 0.00 0.00 0.00 84 1016.1
20260506042643 59 232 1.7 0.0 0.00 0.00 0.00 84 1016.1
20260506042242 59 183 2.6 0.0 0.00 0.00 0.00 85 1016.1
20260506042042 59 208 0.9 0.0 0.00 0.00 0.00 85 1016.1
20260506041842 59 229 1.7 0.0 0.00 0.00 0.00 85 1016.1
20260506041641 59 211 1.7 0.0 0.00 0.00 0.00 85 1016.0
20260506041441 59 225 0.9 0.0 0.00 0.00 0.00 85 1016.0
20260506041241 59 190 0.9 0.0 0.00 0.00 0.00 85 1016.0
20260506041040 59 229 0.9 0.0 0.00 0.00 0.00 85 1016.0
20260506040840 59 199 0.9 0.0 0.00 0.00 0.00 85 1016.1
20260506040639 59 195 1.7 0.0 0.00 0.00 0.00 84 1016.0
20260506040438 59 201 2.6 0.0 0.00 0.00 0.00 84 1016.0
20260506040237 59 174 0.9 0.0 0.00 0.00 0.00 84 1016.0
20260506040037 59 206 0.9 0.0 0.00 0.00 0.00 84 1015.9
20260506035836 59 201 0.9 0.0 0.00 0.00 0.00 84 1015.9
20260506035635 59 224 1.7 0.0 0.00 0.00 0.00 84 1015.8
20260506035435 59 179 1.7 0.0 0.00 0.00 0.00 84 1016.0
20260506035234 59 187 0.9 0.0 0.00 0.00 0.00 84 1015.9
20260506035034 59 189 1.7 0.0 0.00 0.00 0.00 84 1015.8
20260506034834 59 192 1.7 0.0 0.00 0.00 0.00 84 1015.9
20260506034633 59 188 1.7 0.0 0.00 0.00 0.00 84 1015.8
20260506034433 59 190 1.7 0.0 0.00 0.00 0.00 84 1015.8
20260506034232 59 165 0.9 0.0 0.00 0.00 0.00 84 1015.8
20260506034033 59 191 0.9 0.0 0.00 0.00 0.00 84 1015.8
20260506033833 60 195 1.7 0.0 0.00 0.00 0.00 84 1015.9
20260506033632 60 201 0.9 0.0 0.00 0.00 0.00 83 1015.9
20260506033432 60 193 0.9 0.0 0.00 0.00 0.00 83 1015.9
20260506033231 60 209 0.0 0.0 0.00 0.00 0.00 83 1015.9
20260506033031 60 208 0.0 0.0 0.00 0.00 0.00 83 1015.8
20260506032839 60 167 0.0 0.0 0.00 0.00 0.00 83 1015.8
20260506032830 60 211 0.9 0.0 0.00 0.00 0.00 83 1015.8
20260506032429 60 217 0.9 0.0 0.00 0.00 0.00 83 1015.7
20260506032228 60 206 1.7 0.0 0.00 0.00 0.00 82 1015.8
20260506032028 60 199 0.9 0.0 0.00 0.00 0.00 82 1015.9
20260506031827 60 205 0.9 0.0 0.00 0.00 0.00 82 1015.8
20260506031626 60 197 0.9 0.0 0.00 0.00 0.00 82 1015.7
20260506031427 60 198 0.9 0.0 0.00 0.00 0.00 82 1015.8
20260506031226 60 194 0.9 0.0 0.00 0.00 0.00 82 1015.9
20260506031025 60 222 0.9 0.0 0.00 0.00 0.00 82 1015.7
20260506030826 60 208 0.9 0.0 0.00 0.00 0.00 82 1015.8
20260506030625 60 190 0.9 0.0 0.00 0.00 0.00 81 1015.5
20260506030424 60 192 0.9 0.0 0.00 0.00 0.00 81 1015.6
20260506030223 61 208 0.9 0.0 0.00 0.00 0.00 81 1015.7
20260506030035 61 194 1.7 0.0 0.00 0.00 0.00 80 1015.6
20260506030023 61 208 1.7 0.0 0.00 0.00 0.00 80 1015.6
20260506025831 61 200 1.7 0.0 0.00 0.00 0.00 80 1015.6
20260506025422 61 206 1.7 0.0 0.00 0.00 0.00 80 1015.6
20260506025233 61 200 1.7 0.0 0.00 0.00 0.00 80 1015.6
20260506025221 61 205 1.7 0.0 0.00 0.00 0.00 80 1015.6
20260506024820 61 173 0.9 0.0 0.00 0.00 0.00 80 1015.6
20260506024620 61 184 1.7 0.0 0.00 0.00 0.00 79 1015.6
20260506024420 61 200 1.7 0.0 0.00 0.00 0.00 79 1015.5
20260506024229 61 216 0.9 0.0 0.00 0.00 0.00 78 1015.6
20260506024219 61 222 2.6 0.0 0.00 0.00 0.00 79 1015.6
20260506023817 61 193 1.7 0.0 0.00 0.00 0.00 79 1015.5
20260506023617 61 177 1.7 0.0 0.00 0.00 0.00 78 1015.6
20260506023416 62 213 0.9 0.0 0.00 0.00 0.00 78 1015.5
20260506023217 62 229 0.9 0.0 0.00 0.00 0.00 78 1015.3
20260506023017 62 181 1.7 0.0 0.00 0.00 0.00 78 1015.4
20260506022816 62 197 0.9 0.0 0.00 0.00 0.00 78 1015.5
20260506022616 62 215 0.9 0.0 0.00 0.00 0.00 78 1015.4
20260506022416 62 189 0.9 0.0 0.00 0.00 0.00 77 1015.4
20260506022016 62 176 0.9 0.0 0.00 0.00 0.00 79 1015.7
20260506021816 62 179 0.9 0.0 0.00 0.00 0.00 78 1015.5
20260506021615 62 194 1.7 0.0 0.00 0.00 0.00 77 1015.4
20260506021414 62 181 0.9 0.0 0.00 0.00 0.00 77 1015.4
20260506021215 62 173 0.9 0.0 0.00 0.00 0.00 77 1015.5
20260506021014 62 202 1.7 0.0 0.00 0.00 0.00 78 1015.5
20260506020814 62 205 3.5 0.0 0.00 0.00 0.00 78 1015.5
20260506020614 62 173 0.9 0.0 0.00 0.00 0.00 78 1015.4
20260506020426 62 188 1.7 0.0 0.00 0.00 0.00 76 1015.4
20260506020413 62 214 0.9 0.0 0.00 0.00 0.00 77 1015.4
20260506020012 62 211 1.7 0.0 0.00 0.00 0.00 77 1015.5
20260506015812 62 230 0.9 0.0 0.00 0.00 0.00 77 1015.5
20260506015624 63 243 0.9 0.0 0.00 0.00 0.00 77 1015.4
20260506015612 62 189 0.9 0.0 0.00 0.00 0.00 77 1015.5
20260506015209 63 216 1.7 0.0 0.00 0.00 0.00 76 1015.4
20260506015009 63 201 1.7 0.0 0.00 0.00 0.00 75 1015.4
20260506014808 63 266 0.9 0.0 0.00 0.00 0.00 76 1015.4
20260506014607 63 223 1.7 0.0 0.00 0.00 0.00 76 1015.5
20260506014407 63 225 0.9 0.0 0.00 0.00 0.00 76 1015.6
20260506014206 63 161 1.7 0.0 0.00 0.00 0.00 76 1015.6
20260506014006 63 222 1.7 0.0 0.00 0.00 0.00 76 1015.6
20260506013819 63 249 1.7 0.0 0.00 0.00 0.00 76 1015.6
20260506013805 63 198 2.6 0.0 0.00 0.00 0.00 76 1015.6
20260506013405 63 163 0.9 0.0 0.00 0.00 0.00 76 1015.4
20260506013205 63 167 0.9 0.0 0.00 0.00 0.00 75 1015.7
20260506013005 63 241 0.9 0.0 0.00 0.00 0.00 75 1015.6
20260506012814 63 241 0.9 0.0 0.00 0.00 0.00 75 1015.6
20260506012804 63 203 1.7 0.0 0.00 0.00 0.00 75 1015.6
20260506012617 63 171 0.9 0.0 0.00 0.00 0.00 76 1015.4
20260506012203 63 208 0.9 0.0 0.00 0.00 0.00 76 1015.5
20260506011802 63 199 2.6 0.0 0.00 0.00 0.00 75 1015.4
20260506011612 63 183 1.7 0.0 0.00 0.00 0.00 75 1015.5
20260506011600 63 174 2.6 0.0 0.00 0.00 0.00 76 1015.5
20260506011211 63 164 0.9 0.0 0.00 0.00 0.00 76 1015.5
20260506011201 63 215 0.0 0.0 0.00 0.00 0.00 75 1015.5
20260506010759 63 210 1.7 0.0 0.00 0.00 0.00 76 1015.6
20260506010559 63 178 1.7 0.0 0.00 0.00 0.00 76 1015.5
20260506010358 63 85 0.9 0.0 0.00 0.00 0.00 75 1015.5
20260506010207 63 207 1.7 0.0 0.00 0.00 0.00 76 1015.6
20260506010158 63 193 3.5 0.0 0.00 0.00 0.00 76 1015.5
20260506005557 63 210 0.9 0.0 0.00 0.00 0.00 75 1015.6
20260506005356 63 153 0.0 0.0 0.00 0.00 0.00 75 1015.4
20260506005156 63 158 0.9 0.0 0.00 0.00 0.00 76 1015.4
20260506004957 63 221 1.7 0.0 0.00 0.00 0.00 75 1015.4
20260506004756 63 199 1.7 0.0 0.00 0.00 0.00 76 1015.5
20260506004556 63 248 1.7 0.0 0.00 0.00 0.00 75 1015.4
20260506004356 63 262 0.9 0.0 0.00 0.00 0.00 75 1015.4
20260506004156 63 173 2.6 0.0 0.00 0.00 0.00 74 1015.5
20260506003954 63 283 0.9 0.0 0.00 0.00 0.00 75 1015.5
20260506003753 63 247 0.9 0.0 0.00 0.00 0.00 74 1015.6
20260506003552 63 244 1.7 0.0 0.00 0.00 0.00 74 1015.6
20260506003351 64 190 1.7 0.0 0.00 0.00 0.00 75 1015.6
20260506003151 64 201 0.9 0.0 0.00 0.00 0.00 73 1015.5
20260506002950 64 197 2.6 0.0 0.00 0.00 0.00 74 1015.5
20260506002602 65 190 1.7 0.0 0.00 0.00 0.00 73 1015.5
20260506002549 65 214 0.9 0.0 0.00 0.00 0.00 74 1015.5
20260506002148 65 158 0.0 0.0 0.00 0.00 0.00 72 1015.5
20260506001948 65 156 0.0 0.0 0.00 0.00 0.00 72 1015.7
20260506001748 65 224 1.7 0.0 0.00 0.00 0.00 72 1015.7
20260506001546 64 217 1.7 0.0 0.00 0.00 0.00 74 1015.7
20260506001400 64 221 1.7 0.0 0.00 0.00 0.00 73 1015.6
20260506001347 64 188 0.9 0.0 0.00 0.00 0.00 73 1015.8
20260506000946 64 159 0.9 0.0 0.00 0.00 0.00 74 1015.7
20260506000746 65 206 1.7 0.0 0.00 0.00 0.00 71 1015.9
20260506000346 65 90 0.0 0.0 0.00 0.00 0.00 71 1015.9
20260506000144 65 111 0.9 0.0 0.00 0.00 0.00 70 1015.9
20260505235944 65 187 3.5 0.0 0.00 0.00 0.00 72 1015.9
20260505235744 65 138 0.9 0.0 0.00 0.00 0.00 71 1015.9
20260505235543 65 197 0.9 0.0 0.00 0.00 0.00 72 1016.0
20260505235343 65 172 0.9 0.0 0.00 0.00 0.00 72 1015.9
20260505235143 65 194 2.6 0.0 0.00 0.00 0.00 70 1016.0
20260505234956 66 173 0.0 0.0 0.00 0.00 0.00 69 1016.0
20260505234942 66 161 0.0 0.0 0.00 0.00 0.00 71 1016.0
20260505234342 66 217 1.7 0.0 0.00 0.00 0.00 71 1016.0
20260505233941 66 208 2.6 0.0 0.00 0.00 0.00 69 1016.0
20260505233740 66 223 1.7 0.0 0.00 0.00 0.00 69 1016.1
20260505233539 67 132 0.9 0.0 0.00 0.00 0.00 68 1016.0
20260505233338 67 211 0.9 0.0 0.00 0.00 0.00 67 1016.0
20260505233137 68 118 0.9 0.0 0.00 0.00 0.00 66 1016.1
20260505232736 68 173 0.9 0.0 0.00 0.00 0.00 67 1015.9
20260505232547 68 176 2.6 0.0 0.00 0.00 0.00 67 1016.0
20260505232536 68 112 0.0 0.0 0.00 0.00 0.00 67 1016.0
20260505232134 67 182 0.9 0.0 0.00 0.00 0.00 67 1016.1
20260505231933 68 173 1.7 0.0 0.00 0.00 0.00 65 1016.1
20260505231746 68 117 0.9 0.0 0.00 0.00 0.00 67 1016.2
20260505231332 68 168 0.9 0.0 0.00 0.00 0.00 66 1016.2
20260505230931 68 192 0.9 0.0 0.00 0.00 0.00 66 1016.1
20260505230330 69 197 5.2 0.0 0.00 0.00 0.00 64 1016.2
20260505225930 69 176 0.0 0.0 0.00 0.00 0.00 65 1016.2
20260505225729 68 124 0.9 0.0 0.00 0.00 0.00 64 1016.2
20260505225529 69 148 0.9 0.0 0.00 0.00 0.00 64 1016.2
20260505225328 68 61 0.9 0.0 0.00 0.00 0.00 65 1016.1
20260505225127 68 147 0.9 0.0 0.00 0.00 0.00 65 1016.4
20260505224927 68 123 0.9 0.0 0.00 0.00 0.00 64 1016.3
20260505224726 68 162 0.9 0.0 0.00 0.00 0.00 66 1016.3
20260505224526 68 170 0.9 0.0 0.00 0.00 0.00 66 1016.5
20260505224325 68 186 0.9 0.0 0.00 0.00 0.00 65 1016.4
20260505224124 67 135 0.0 0.0 0.00 0.00 0.00 68 1016.3
20260505223923 67 179 0.0 0.0 0.00 0.00 0.00 68 1016.3
20260505223722 66 179 0.9 0.0 0.00 0.00 0.00 68 1016.4
20260505223322 65 190 2.6 0.0 0.00 0.00 0.00 70 1016.4
20260505222921 66 145 1.7 0.0 0.00 0.00 0.00 69 1016.3
20260505222730 65 190 3.5 0.0 0.00 0.00 0.00 70 1016.4
20260505222721 65 133 0.9 0.0 0.00 0.00 0.00 69 1016.4
20260505222319 65 163 0.9 0.0 0.00 0.00 0.00 70 1016.5
20260505222120 65 166 1.7 0.0 0.00 0.00 0.00 69 1016.5
20260505221918 65 134 0.9 0.0 0.00 0.00 0.00 69 1016.6
20260505221717 65 133 0.9 0.0 0.00 0.00 0.00 70 1016.5
20260505221517 66 148 0.9 0.0 0.00 0.00 0.00 67 1016.5
20260505221316 66 172 1.7 0.0 0.00 0.00 0.00 67 1016.6
20260505221116 66 188 1.7 0.0 0.00 0.00 0.00 68 1016.6
20260505220915 66 150 0.0 0.0 0.00 0.00 0.00 68 1016.5
20260505220514 68 191 0.9 0.0 0.00 0.00 0.00 64 1016.5
20260505220314 67 128 0.9 0.0 0.00 0.00 0.00 67 1016.5
20260505220114 66 183 0.9 0.0 0.00 0.00 0.00 68 1016.5
20260505215913 66 167 0.9 0.0 0.00 0.00 0.00 69 1016.6
20260505215714 67 131 1.7 0.0 0.00 0.00 0.00 68 1016.7
20260505215513 66 143 0.9 0.0 0.00 0.00 0.00 68 1016.6
20260505215312 66 144 0.9 0.0 0.00 0.00 0.00 67 1016.6
20260505215124 66 152 0.9 0.0 0.00 0.00 0.00 66 1016.8
20260505215111 66 106 0.9 0.0 0.00 0.00 0.00 68 1016.7
20260505214724 67 205 0.9 0.0 0.00 0.00 0.00 66 1016.7
20260505214711 67 210 0.0 0.0 0.00 0.00 0.00 65 1016.8
20260505214309 67 169 1.7 0.0 0.00 0.00 0.00 69 1016.9
20260505213909 66 177 1.7 0.0 0.00 0.00 0.00 69 1017.0
20260505213709 66 112 0.9 0.0 0.00 0.00 0.00 68 1016.9
20260505213509 67 230 4.3 0.0 0.00 0.00 0.00 69 1016.9
20260505213308 66 198 3.5 0.0 0.00 0.00 0.00 68 1016.9
20260505213108 65 126 1.7 0.0 0.00 0.00 0.00 71 1016.9
20260505212906 65 194 5.2 0.0 0.00 0.00 0.00 70 1016.9
20260505212707 65 170 6.1 0.0 0.00 0.00 0.00 69 1016.9
20260505212506 65 184 2.6 0.0 0.00 0.00 0.00 71 1016.9
20260505212306 64 170 2.6 0.0 0.00 0.00 0.00 72 1017.0
20260505212106 64 157 1.7 0.0 0.00 0.00 0.00 70 1017.0
20260505211904 65 158 0.9 0.0 0.00 0.00 0.00 70 1016.9
20260505211704 64 150 2.6 0.0 0.00 0.00 0.00 70 1016.9
20260505211514 64 208 2.6 0.0 0.00 0.00 0.00 71 1016.8
20260505211503 65 111 0.9 0.0 0.00 0.00 0.00 70 1016.9
20260505211113 64 145 0.9 0.0 0.00 0.00 0.00 71 1017.0
20260505211103 64 197 7.0 0.0 0.00 0.00 0.00 71 1016.9
20260505210702 65 142 0.9 0.0 0.00 0.00 0.00 70 1016.9
20260505210502 64 150 0.9 0.0 0.00 0.00 0.00 71 1016.9
20260505210302 64 223 1.7 0.0 0.00 0.00 0.00 72 1016.9
20260505205901 64 122 0.9 0.0 0.00 0.00 0.00 70 1016.9
20260505205701 65 161 0.9 0.0 0.00 0.00 0.00 72 1016.8
20260505205501 64 156 0.9 0.0 0.00 0.00 0.00 72 1017.0
20260505205300 64 169 0.9 0.0 0.00 0.00 0.00 72 1016.9
20260505205100 63 135 0.9 0.0 0.00 0.00 0.00 73 1017.1
20260505204859 63 139 0.9 0.0 0.00 0.00 0.00 74 1017.0
20260505204659 62 261 1.7 0.0 0.00 0.00 0.00 75 1017.2
20260505204459 62 150 0.9 0.0 0.00 0.00 0.00 75 1017.0
20260505204258 62 146 0.0 0.0 0.00 0.00 0.00 75 1017.3
20260505204057 61 143 0.9 0.0 0.00 0.00 0.00 77 1017.2
20260505203857 61 124 0.9 0.0 0.00 0.00 0.00 76 1017.2
20260505203657 61 159 0.9 0.0 0.00 0.00 0.00 76 1017.1
20260505203507 62 192 2.6 0.0 0.00 0.00 0.00 75 1017.3
20260505203456 61 193 2.6 0.0 0.00 0.00 0.00 75 1017.1
20260505203309 62 176 1.7 0.0 0.00 0.00 0.00 75 1017.3
20260505202855 62 147 0.9 0.0 0.00 0.00 0.00 75 1017.3
20260505202655 62 184 1.7 0.0 0.00 0.00 0.00 75 1017.2
20260505202454 62 190 1.7 0.0 0.00 0.00 0.00 75 1017.2
20260505202254 62 226 3.5 0.0 0.00 0.00 0.00 76 1017.2
20260505202054 61 199 1.7 0.0 0.00 0.00 0.00 76 1017.3
20260505201853 61 144 0.0 0.0 0.00 0.00 0.00 77 1017.4
20260505201653 61 167 0.9 0.0 0.00 0.00 0.00 77 1017.3
20260505201252 61 117 0.9 0.0 0.00 0.00 0.00 75 1017.2
20260505201052 61 159 0.9 0.0 0.00 0.00 0.00 75 1017.3
20260505200852 61 131 0.0 0.0 0.00 0.00 0.00 76 1017.4
20260505200651 61 143 1.7 0.0 0.00 0.00 0.00 74 1017.2
20260505200452 62 142 0.9 0.0 0.00 0.00 0.00 75 1017.3
20260505200250 62 203 0.9 0.0 0.00 0.00 0.00 76 1017.1
20260505200051 61 180 1.7 0.0 0.00 0.00 0.00 76 1017.1
20260505195850 61 154 0.9 0.0 0.00 0.00 0.00 75 1017.1
20260505195650 62 129 0.9 0.0 0.00 0.00 0.00 75 1017.2
20260505195450 61 150 0.9 0.0 0.00 0.00 0.00 75 1017.1
20260505195250 61 205 1.7 0.0 0.00 0.00 0.00 77 1017.2
20260505195048 61 224 0.9 0.0 0.00 0.00 0.00 76 1017.3
20260505194849 61 262 1.7 0.0 0.00 0.00 0.00 75 1017.2
20260505194647 61 187 5.2 0.0 0.00 0.00 0.00 76 1017.3
20260505194446 61 102 0.0 0.0 0.00 0.00 0.00 76 1017.2
20260505194246 61 160 0.9 0.0 0.00 0.00 0.00 76 1017.3
20260505194045 61 203 2.6 0.0 0.00 0.00 0.00 76 1017.2
20260505193845 61 193 1.7 0.0 0.00 0.00 0.00 76 1017.4
20260505193656 61 188 1.7 0.0 0.00 0.00 0.00 76 1017.3
20260505193644 61 201 2.6 0.0 0.00 0.00 0.00 76 1017.2
20260505193255 60 190 3.5 0.0 0.00 0.00 0.00 77 1017.3
20260505193244 61 209 4.3 0.0 0.00 0.00 0.00 77 1017.3
20260505192843 60 249 1.7 0.0 0.00 0.00 0.00 77 1017.3
20260505192643 60 156 1.7 0.0 0.00 0.00 0.00 76 1017.3
20260505192443 60 197 3.5 0.0 0.00 0.00 0.00 76 1017.3
20260505192042 61 198 2.6 0.0 0.00 0.00 0.00 78 1017.3
20260505191841 60 197 0.9 0.0 0.00 0.00 0.00 77 1017.3
20260505191640 60 217 5.2 0.0 0.00 0.00 0.00 77 1017.3
20260505191449 60 165 0.9 0.0 0.00 0.00 0.00 76 1017.2
20260505191440 60 197 3.5 0.0 0.00 0.00 0.00 76 1017.3
20260505191039 60 115 0.0 0.0 0.00 0.00 0.00 78 1017.3
20260505190839 60 164 0.9 0.0 0.00 0.00 0.00 76 1017.3
20260505190439 60 225 0.0 0.0 0.00 0.00 0.00 77 1017.2
20260505190247 60 205 0.9 0.0 0.00 0.00 0.00 75 1017.3
20260505190239 60 134 0.9 0.0 0.00 0.00 0.00 76 1017.1
20260505185838 60 184 1.7 0.0 0.00 0.00 0.00 77 1017.2
20260505185235 60 179 0.0 0.0 0.00 0.00 0.00 78 1017.3
20260505184848 59 113 0.9 0.0 0.00 0.00 0.00 79 1017.2
20260505184834 60 199 0.9 0.0 0.00 0.00 0.00 80 1017.2
20260505184433 59 140 1.7 0.0 0.00 0.00 0.00 79 1017.1
20260505184233 59 236 0.0 0.0 0.00 0.00 0.00 78 1017.3
20260505184047 59 218 3.5 0.0 0.00 0.00 0.00 79 1017.3
20260505184033 59 176 0.9 0.0 0.00 0.00 0.00 78 1017.2
20260505183632 59 146 1.7 0.0 0.00 0.00 0.00 78 1017.2
20260505183030 59 218 2.6 0.0 0.00 0.00 0.00 80 1017.2
20260505182830 59 209 1.7 0.0 0.00 0.00 0.00 80 1017.1
20260505182228 58 180 0.9 0.0 0.00 0.00 0.00 79 1017.1
20260505181827 58 180 1.7 0.0 0.00 0.00 0.00 80 1017.2
20260505181627 59 200 4.3 0.0 0.00 0.00 0.00 79 1017.1
20260505181427 59 171 1.7 0.0 0.00 0.00 0.00 79 1017.1
20260505181226 59 150 1.7 0.0 0.00 0.00 0.00 79 1017.1
20260505181039 59 207 2.6 0.0 0.00 0.00 0.00 77 1017.2
20260505181026 59 222 4.3 0.0 0.00 0.00 0.00 79 1017.1
20260505180836 59 174 1.7 0.0 0.00 0.00 0.00 78 1017.0
20260505180425 59 188 1.7 0.0 0.00 0.00 0.00 77 1017.2
20260505180024 59 82 0.9 0.0 0.00 0.00 0.00 79 1016.9
20260505175824 59 196 0.9 0.0 0.00 0.00 0.00 80 1017.0
20260505175623 58 181 0.9 0.0 0.00 0.00 0.00 80 1017.0
20260505175437 58 162 3.5 0.0 0.00 0.00 0.00 80 1017.1
20260505175423 58 138 1.7 0.0 0.00 0.00 0.00 81 1017.0
20260505175022 58 141 1.7 0.0 0.00 0.00 0.00 79 1017.1
20260505174833 58 146 0.9 0.0 0.00 0.00 0.00 80 1017.1
20260505174822 58 175 1.7 0.0 0.00 0.00 0.00 80 1017.1
20260505174635 58 149 0.9 0.0 0.00 0.00 0.00 81 1017.1
20260505174235 58 157 0.9 0.0 0.00 0.00 0.00 80 1017.2
20260505174221 58 210 0.9 0.0 0.00 0.00 0.00 81 1017.0
20260505174031 58 194 5.2 0.0 0.00 0.00 0.00 80 1017.2
20260505173834 58 153 0.9 0.0 0.00 0.00 0.00 80 1017.3
20260505173433 58 204 0.9 0.0 0.00 0.00 0.00 81 1017.1
20260505173420 58 207 3.5 0.0 0.00 0.00 0.00 79 1017.3
20260505172617 58 189 2.6 0.0 0.00 0.00 0.00 81 1017.2
20260505171826 58 258 0.9 0.0 0.00 0.00 0.00 82 1017.1
20260505171414 57 189 1.7 0.0 0.00 0.00 0.00 80 1017.1
20260505171214 58 185 3.5 0.0 0.00 0.00 0.00 81 1017.2
20260505170613 57 202 0.9 0.0 0.00 0.00 0.00 82 1016.9
20260505170413 57 201 1.7 0.0 0.00 0.00 0.00 82 1016.9
20260505170213 57 223 0.9 0.0 0.00 0.00 0.00 81 1016.9
20260505170013 57 176 2.6 0.0 0.00 0.00 0.00 81 1016.9
20260505165611 57 152 1.7 0.0 0.00 0.00 0.00 82 1016.9
20260505165410 57 127 0.9 0.0 0.00 0.00 0.00 81 1016.9
20260505165210 57 173 0.0 0.0 0.00 0.00 0.00 82 1017.0
20260505165010 57 179 1.7 0.0 0.00 0.00 0.00 83 1016.9
20260505164409 57 170 0.0 0.0 0.00 0.00 0.00 82 1016.7
20260505164208 57 207 2.6 0.0 0.00 0.00 0.00 82 1016.8
20260505163606 57 221 1.7 0.0 0.00 0.00 0.00 83 1016.8
20260505163406 57 156 0.9 0.0 0.00 0.00 0.00 83 1016.8
20260505163215 57 210 1.7 0.0 0.00 0.00 0.00 83 1016.9
20260505162804 57 208 2.6 0.0 0.00 0.00 0.00 83 1016.9
20260505162212 56 238 0.0 0.0 0.00 0.00 0.00 82 1016.7
20260505162204 57 93 0.9 0.0 0.00 0.00 0.00 83 1016.9
20260505161801 57 264 1.7 0.0 0.00 0.00 0.00 84 1016.8
20260505161400 56 133 0.9 0.0 0.00 0.00 0.00 83 1016.7
20260505161001 56 182 0.9 0.0 0.00 0.00 0.00 84 1016.6
20260505160759 56 146 0.0 0.0 0.00 0.00 0.00 84 1016.9
20260505160559 56 144 0.9 0.0 0.00 0.00 0.00 84 1016.8
20260505160359 56 195 0.9 0.0 0.00 0.00 0.00 83 1016.7
20260505153152 56 180 0.9 0.0 0.00 0.00 0.00 86 1016.4
20260505152951 55 249 0.9 0.0 0.00 0.00 0.00 86 1016.3
20260505152550 55 184 3.5 0.0 0.00 0.00 0.00 86 1016.3
20260505152350 55 232 1.7 0.0 0.00 0.00 0.00 86 1016.3
20260505152149 55 207 1.7 0.0 0.00 0.00 0.00 86 1016.3
20260505151948 55 185 1.7 0.0 0.00 0.00 0.00 86 1016.4
20260505151747 55 151 0.9 0.0 0.00 0.00 0.00 86 1016.4
20260505151559 56 196 1.7 0.0 0.00 0.00 0.00 86 1016.2
20260505151547 55 172 1.7 0.0 0.00 0.00 0.00 86 1016.2
20260505150544 55 206 0.0 0.0 0.00 0.00 0.00 86 1016.5
20260505150356 55 204 2.6 0.0 0.00 0.00 0.00 87 1016.4
20260505150344 55 125 1.7 0.0 0.00 0.00 0.00 86 1016.6
20260505140532 55 175 0.9 0.0 0.00 0.00 0.00 89 1015.7
20260505140332 55 201 2.6 0.0 0.00 0.00 0.00 89 1015.6
20260505130120 55 253 1.7 0.0 0.00 0.00 0.00 89 1015.0
20260505124716 54 179 1.7 0.0 0.00 0.00 0.00 90 1014.9
20260505124517 54 186 2.6 0.0 0.00 0.00 0.00 90 1014.9
20260505124316 54 181 3.5 0.0 0.00 0.00 0.00 90 1014.8
20260505124115 54 162 2.6 0.0 0.00 0.00 0.00 90 1014.9
20260505123915 55 218 3.5 0.0 0.00 0.00 0.00 90 1014.9
20260505123714 55 244 1.7 0.0 0.00 0.00 0.00 90 1014.8
20260505123512 55 178 2.6 0.0 0.00 0.00 0.00 90 1014.7
20260505123313 55 211 0.0 0.0 0.00 0.00 0.00 90 1014.9
20260505123112 55 202 2.6 0.0 0.00 0.00 0.00 90 1014.7
20260505122711 55 168 2.6 0.0 0.00 0.00 0.00 90 1014.7
20260505122523 55 133 0.9 0.0 0.00 0.00 0.00 90 1014.8
20260505122510 55 196 0.9 0.0 0.00 0.00 0.00 90 1014.8
20260505121910 55 179 3.5 0.0 0.00 0.00 0.00 90 1014.7
20260505121508 55 192 2.6 0.0 0.00 0.00 0.00 90 1014.6
20260505121308 55 214 2.6 0.0 0.00 0.00 0.00 90 1014.9
20260505121107 55 145 0.9 0.0 0.00 0.00 0.00 90 1014.7
20260505120908 55 197 1.7 0.0 0.00 0.00 0.00 90 1014.8
20260505120718 55 221 0.9 0.0 0.00 0.00 0.00 90 1014.5
20260505120306 55 197 0.9 0.0 0.00 0.00 0.00 90 1014.5
20260505120106 55 160 0.9 0.0 0.00 0.00 0.00 90 1014.7
20260505115905 55 225 1.7 0.0 0.00 0.00 0.00 90 1014.5
20260505115705 55 234 0.0 0.0 0.00 0.00 0.00 90 1014.5
20260505115505 55 242 0.9 0.0 0.00 0.00 0.00 90 1014.5
20260505115306 55 234 0.9 0.0 0.00 0.00 0.00 90 1014.5
20260505115104 54 204 1.7 0.0 0.00 0.00 0.00 90 1014.5
20260505114904 54 204 0.9 0.0 0.00 0.00 0.00 90 1014.6
20260505114704 55 174 5.2 0.0 0.00 0.00 0.00 90 1014.5
20260505114503 54 184 1.7 0.0 0.00 0.00 0.00 90 1014.6
20260505114302 55 200 0.0 0.0 0.00 0.00 0.00 90 1014.8
20260505114117 55 123 0.9 0.0 0.00 0.00 0.00 90 1014.4
20260505114102 55 123 0.0 0.0 0.00 0.00 0.00 90 1014.7
20260505113913 55 166 2.6 0.0 0.00 0.00 0.00 90 1014.6
20260505113501 55 228 2.6 0.0 0.00 0.00 0.00 90 1014.5
20260505113301 55 146 0.9 0.0 0.00 0.00 0.00 90 1014.6
20260505113113 55 239 1.7 0.0 0.00 0.00 0.00 90 1014.5
20260505113059 55 191 3.5 0.0 0.00 0.00 0.00 90 1014.6
20260505112658 55 206 2.6 0.0 0.00 0.00 0.00 90 1014.5
20260505112256 55 209 0.9 0.0 0.00 0.00 0.00 90 1014.4
20260505112057 55 279 0.0 0.0 0.00 0.00 0.00 90 1014.4
20260505111856 55 199 1.7 0.0 0.00 0.00 0.00 90 1014.4
20260505111656 55 283 0.0 0.0 0.00 0.00 0.00 90 1014.4
20260505111455 55 209 0.9 0.0 0.00 0.00 0.00 90 1014.4
20260505111254 55 296 0.9 0.0 0.00 0.00 0.00 90 1014.4
20260505111054 55 119 0.9 0.0 0.00 0.00 0.00 90 1014.4
20260505110906 55 193 1.7 0.0 0.00 0.00 0.00 90 1014.3
20260505110853 55 204 1.7 0.0 0.00 0.00 0.00 90 1014.4
20260505110453 55 134 0.9 0.0 0.00 0.00 0.00 90 1014.5
20260505102053 55 193 6.1 0.0 0.00 0.00 0.00 91 1013.9
20260505102044 55 197 2.6 0.0 0.00 0.00 0.00 91 1013.7
20260505101642 55 190 0.9 0.0 0.00 0.00 0.00 91 1014.0
20260505101241 55 201 4.3 0.0 0.00 0.00 0.00 91 1013.8
20260505101041 55 171 0.9 0.0 0.00 0.00 0.00 91 1013.9
20260505100840 55 163 0.9 0.0 0.00 0.00 0.00 91 1013.9
20260505100649 55 212 1.7 0.0 0.00 0.00 0.00 91 1013.9
20260505100639 55 207 0.9 0.0 0.00 0.00 0.00 91 1013.8
20260505100238 55 231 0.0 0.0 0.00 0.00 0.00 91 1013.7
20260505100038 55 237 2.6 0.0 0.00 0.00 0.00 91 1013.8
20260505095837 55 233 0.9 0.0 0.00 0.00 0.00 91 1013.9
20260505095636 55 208 3.5 0.0 0.00 0.00 0.00 91 1013.9
20260505095434 54 206 3.5 0.0 0.00 0.00 0.00 91 1013.8
20260505095244 55 200 3.5 0.0 0.00 0.00 0.00 91 1013.9
20260505095234 54 203 2.6 0.0 0.00 0.00 0.00 91 1013.9
20260505094843 54 195 0.9 0.0 0.00 0.00 0.00 92 1013.7
20260505094834 55 164 0.9 0.0 0.00 0.00 0.00 92 1013.8
20260505094434 54 200 3.5 0.0 0.00 0.00 0.00 92 1013.9
20260505094233 54 209 1.7 0.0 0.00 0.00 0.00 92 1013.8
20260505094033 54 223 1.7 0.0 0.00 0.00 0.00 92 1013.8
20260505093844 54 179 2.6 0.0 0.00 0.00 0.00 92 1013.8
20260505093832 54 160 1.7 0.0 0.00 0.00 0.00 92 1013.8
20260505093642 54 189 1.7 0.0 0.00 0.00 0.00 92 1013.8
20260505093230 54 239 2.6 0.0 0.00 0.00 0.00 92 1013.8
20260505093030 54 230 0.9 0.0 0.00 0.00 0.00 92 1013.9
20260505092830 54 174 0.9 0.0 0.00 0.00 0.00 92 1013.9
20260505092630 54 156 3.5 0.0 0.00 0.00 0.00 92 1013.9
20260505092440 54 190 4.3 0.0 0.00 0.00 0.00 92 1013.6
20260505092428 54 181 0.9 0.0 0.00 0.00 0.00 92 1013.6
20260505092027 54 181 3.5 0.0 0.00 0.00 0.00 92 1013.5
20260505091827 54 167 1.7 0.0 0.00 0.00 0.00 92 1013.6
20260505091626 54 183 3.5 0.0 0.00 0.00 0.00 92 1013.5
20260505091226 54 138 1.7 0.0 0.00 0.00 0.00 92 1013.6
20260505091026 54 186 3.5 0.0 0.00 0.00 0.00 92 1013.5
20260505090826 54 159 0.9 0.0 0.00 0.00 0.00 92 1013.5
20260505090425 54 196 0.9 0.0 0.00 0.00 0.00 92 1013.5
20260505090024 54 180 0.9 0.0 0.00 0.00 0.00 92 1013.6
20260505085624 54 228 1.7 0.0 0.00 0.00 0.00 92 1013.4
20260505085422 54 181 1.7 0.0 0.00 0.00 0.00 92 1013.4
20260505085222 54 153 1.7 0.0 0.00 0.00 0.00 92 1013.5
20260505085021 54 185 0.9 0.0 0.00 0.00 0.00 92 1013.3
20260505084821 54 204 0.9 0.0 0.00 0.00 0.00 92 1013.5
20260505084631 54 221 1.7 0.0 0.00 0.00 0.00 92 1013.4
20260505084621 54 191 2.6 0.0 0.00 0.00 0.00 92 1013.5
20260505084220 54 184 2.6 0.0 0.00 0.00 0.00 92 1013.5
20260505084020 54 208 1.7 0.0 0.00 0.00 0.00 92 1013.3
20260505083219 54 223 0.9 0.0 0.00 0.00 0.00 92 1013.3
20260505083018 54 184 1.7 0.0 0.00 0.00 0.00 92 1013.3
20260505082817 54 178 0.9 0.0 0.00 0.00 0.00 92 1013.3
20260505082616 54 162 1.7 0.0 0.00 0.00 0.00 92 1013.3
20260505082416 54 182 2.6 0.0 0.00 0.00 0.00 92 1013.2
20260505081615 54 197 2.6 0.0 0.00 0.00 0.00 92 1013.2
20260505081415 54 207 2.6 0.0 0.00 0.00 0.00 92 1013.3
20260505081214 54 250 1.7 0.0 0.00 0.00 0.00 92 1013.4
20260505081014 54 184 0.9 0.0 0.00 0.00 0.00 92 1013.3
20260505080814 54 177 1.7 0.0 0.00 0.00 0.00 92 1013.2
20260505080624 54 185 1.7 0.0 0.00 0.00 0.00 92 1013.4
20260505080612 54 168 0.9 0.0 0.00 0.00 0.00 92 1013.3
20260505080211 54 187 2.6 0.0 0.00 0.00 0.00 92 1013.5
20260505080011 54 196 3.5 0.0 0.00 0.00 0.00 92 1013.2
20260505075810 54 195 1.7 0.0 0.00 0.00 0.00 92 1013.3
20260505075610 54 202 0.9 0.0 0.00 0.00 0.00 92 1013.3
20260505075410 54 209 1.7 0.0 0.00 0.00 0.00 91 1013.3
20260505075210 54 218 2.6 0.0 0.00 0.00 0.00 91 1013.3
20260505075022 54 156 0.9 0.0 0.00 0.00 0.00 91 1013.3
20260505075009 54 206 2.6 0.0 0.00 0.00 0.00 91 1013.3
20260505074608 54 155 1.7 0.0 0.00 0.00 0.00 91 1013.2
20260505074408 55 203 1.7 0.0 0.00 0.00 0.00 91 1013.1
20260505074208 55 198 1.7 0.0 0.00 0.00 0.00 91 1013.2
20260505074018 55 212 3.5 0.0 0.00 0.00 0.00 91 1013.1
20260505074008 55 200 2.6 0.0 0.00 0.00 0.00 91 1013.1
20260505073820 55 202 1.7 0.0 0.00 0.00 0.00 91 1013.2
20260505073405 55 208 1.7 0.0 0.00 0.00 0.00 91 1013.1
20260505073206 55 214 2.6 0.0 0.00 0.00 0.00 91 1013.0
20260505073018 55 160 1.7 0.0 0.00 0.00 0.00 91 1012.9
20260505073005 55 175 0.9 0.0 0.00 0.00 0.00 91 1012.9
20260505072605 55 191 2.6 0.0 0.00 0.00 0.00 91 1012.8
20260505072404 55 203 1.7 0.0 0.00 0.00 0.00 91 1012.9
20260505072203 55 189 4.3 0.0 0.00 0.00 0.00 91 1012.8
20260505072002 55 194 1.7 0.0 0.00 0.00 0.00 91 1012.8
20260505071811 55 202 2.6 0.0 0.00 0.00 0.00 90 1012.8
20260505071802 55 203 2.6 0.0 0.00 0.00 0.00 91 1012.8
20260505071411 55 188 1.7 0.0 0.00 0.00 0.00 90 1012.8
20260505071401 55 188 2.6 0.0 0.00 0.00 0.00 90 1012.7
20260505071208 55 212 1.7 0.0 0.00 0.00 0.00 90 1012.8
20260505071010 55 173 0.9 0.0 0.00 0.00 0.00 90 1012.8
20260505070558 55 175 0.9 0.0 0.00 0.00 0.00 90 1012.7
20260505070406 55 122 0.9 0.0 0.00 0.00 0.00 90 1012.8
20260505070358 55 222 0.9 0.0 0.00 0.00 0.00 90 1012.7
20260505065756 55 193 4.3 0.0 0.00 0.00 0.00 90 1012.6
20260505065556 55 181 5.2 0.0 0.00 0.00 0.00 89 1012.6
20260505065355 55 206 4.3 0.0 0.00 0.00 0.00 89 1012.7
20260505065154 55 217 1.7 0.0 0.00 0.00 0.00 89 1012.7
20260505064954 55 193 2.6 0.0 0.00 0.00 0.00 89 1012.5
20260505064804 56 218 2.6 0.0 0.00 0.00 0.00 89 1012.4
20260505064754 55 189 0.9 0.0 0.00 0.00 0.00 89 1012.6
20260505064403 56 210 0.9 0.0 0.00 0.00 0.00 88 1012.4
20260505064353 56 171 0.9 0.0 0.00 0.00 0.00 89 1012.4
20260505064206 56 194 2.6 0.0 0.00 0.00 0.00 88 1012.3
20260505064003 56 150 2.6 0.0 0.00 0.00 0.00 88 1012.3
20260505063550 56 194 2.6 0.0 0.00 0.00 0.00 88 1012.1
20260505063404 56 159 1.7 0.0 0.00 0.00 0.00 88 1012.4
20260505063350 56 172 1.7 0.0 0.00 0.00 0.00 88 1012.3
20260505062950 56 191 0.9 0.0 0.00 0.00 0.00 88 1012.3
20260505062750 56 183 0.9 0.0 0.00 0.00 0.00 88 1012.4
20260505062548 56 193 1.7 0.0 0.00 0.00 0.00 88 1012.2
20260505062349 56 180 4.3 0.0 0.00 0.00 0.00 87 1012.3
20260505062158 56 207 3.5 0.0 0.00 0.00 0.00 87 1012.2
20260505062148 56 208 5.2 0.0 0.00 0.00 0.00 87 1012.3
20260505061756 56 219 0.9 0.0 0.00 0.00 0.00 87 1012.3
20260505061748 56 177 0.9 0.0 0.00 0.00 0.00 87 1012.1
20260505061356 56 185 2.6 0.0 0.00 0.00 0.00 87 1012.1
20260505061347 56 190 0.9 0.0 0.00 0.00 0.00 87 1012.2
20260505061159 57 193 3.5 0.0 0.00 0.00 0.00 87 1012.1
20260505060746 56 187 0.9 0.0 0.00 0.00 0.00 87 1012.1
20260505060545 57 207 2.6 0.0 0.00 0.00 0.00 87 1012.0
20260505060357 57 183 1.7 0.0 0.00 0.00 0.00 87 1012.0
20260505060345 57 163 1.7 0.0 0.00 0.00 0.00 87 1012.0
20260505055945 57 145 1.7 0.0 0.00 0.00 0.00 87 1011.9
20260505055745 57 217 5.2 0.0 0.00 0.00 0.00 86 1012.0